Location: New Plymouth
(39.0670°S, 174.0830°E)
Time: 12:04:34
(UTC+13:00)

Cosmos 540 Rocket - Pass Details

Date: 24 January 2019
Orbit: 741 x 753 km, 74.1° (Epoch: 19 February)

Event Time Altitude Azimuth Distance (km) Brightness Sun altitude
Rises 22:09:11 0° 192° (SSW) 3,241 7.6 -14.3°
Reaches altitude 10° 22:11:43 10° 184° (S) 2,307 6.6 -14.7°
Maximum altitude 22:16:38 40° 114° (ESE) 1,109 4.1 -15.4°
Enters shadow 22:19:07 25° 61° (ENE) 1,504 4.4 -15.8°
